Flag for India Weather past 2 weeks in Vasai-Virar, Maharashtra, India

Now
73 °F

Scattered clouds.


Feels Like: 74 °F
Forecast: 69 / 83 °F
Wind: 5 mph from East

Location: Bombay / Santacruz

Current Time: Jan 25, 2015 at 9:40:31 AM

Latest Report: Jan 25, 2015 at 8:40 AM


Visibility: 1 mi

Pressure: 30.01 "Hg

Humidity: 78%

Dew point: 66 °F

Location of Vasai-VirarLocation

Historic Weather in Vasai-Virar — Graph

°F

Vasai-Virar temperature yesterday

Maximum temperature yesterday: 82 °F (at 11:40 AM)
Minimum temperature yesterday: 72 °F (at 3:40 AM)
Average temperature yesterday: 77 °F

Past Weeks' High & Low Weather Summary

 TemperatureHumidityPressure
High88 °F (Jan 10, 12:40 PM)94% (Jan 20, 4:40 AM)30.09 "Hg (Jan 20, 4:40 AM)
Low66 °F (Jan 15, 7:40 AM)21% (Jan 10, 1:40 PM)29.86 "Hg (Jan 14, 2:40 PM)
Average77 °F53%29.96 "Hg
* Reported Jan 10 7:40 AM — Jan 25 7:40 AM, Vasai-Virar, Weather by CustomWeather, © 2014

Note: Actual official high and low records may vary slightly from our data, if they occured in-between our weather recording intervals... More about our weather records

Advertising

Vasai-Virar weather history for previous 24 hours

 ConditionsComfort  
Time TempWeatherWind HumidityBarometerVisibility
7:40 AM
Jan 25
72 °FPassing clouds.No wind83%29.98 "Hg1 mi
6:40 AM73 °FPassing clouds.5 mph78%29.95 "Hg1 mi
5:40 AM72 °FPassing clouds.No wind83%29.95 "Hg1 mi
4:40 AM73 °FPassing clouds.No wind78%29.95 "Hg1 mi
3:40 AM73 °FHaze.No wind78%29.95 "Hg1 mi
2:40 AM73 °FHaze.No wind83%29.95 "Hg1 mi
1:40 AM75 °FHaze.No wind78%29.95 "Hg1 mi
12:40 AM75 °FPassing clouds.No wind78%29.98 "Hg1 mi
11:40 PM
Jan 24
77 °FPassing clouds.3 mph69%29.98 "Hg1 mi
10:40 PM75 °FPassing clouds.No wind74%29.98 "Hg1 mi
9:40 PM75 °FPassing clouds.6 mph74%30.01 "Hg1 mi
8:40 PM77 °FPassing clouds.8 mph69%29.98 "Hg1 mi
7:40 PM77 °FPassing clouds.8 mph69%29.95 "Hg1 mi
6:40 PM77 °FScattered clouds.8 mph69%29.95 "Hg1 mi
5:40 PM79 °FScattered clouds.9 mph65%29.92 "Hg1 mi
4:40 PM81 °FScattered clouds.12 mph62%29.92 "Hg1 mi
3:40 PM82 °FPassing clouds.12 mph58%29.89 "Hg1 mi
2:40 PM82 °FPassing clouds.10 mph51%29.89 "Hg1 mi
1:40 PM82 °FPassing clouds.10 mph55%29.92 "Hg2 mi
11:40 AM82 °FClear.6 mph45%29.98 "Hg1 mi
10:40 AM81 °FClear.3 mph45%29.98 "Hg1 mi
9:40 AM77 °FClear.6 mph47%29.98 "Hg1 mi
Weather by CustomWeather, © 2014

See weather overviewHow to use our weather pages